Regional Weather Roundup
Issued by NWS

Home | Current Version | Previous Version | Graphics & Text | Print | Product List | Glossary On
Versions: 1 2 3 4 5 6 7 8 9 10 11 12 13 14 15 16 17 18 19 20 21 22 23 24 25 26 27 28 29 30 31 32 33 34 35 36 37 38 39 40 41 42 43 44 45 46 47 48 49 50
084
ASUS44 KMEG 300010
RWRTN
TENNESSEE HOURLY STATE WEATHER ROUNDUP
NATIONAL WEATHER SERVICE MEMPHIS TN
700 PM CDT FRI JUL 29 2016

TNZ002-004-019-021-049-052-054-088>092-300100-
WEST TENNESSEE

CITY           SKY/WX    TMP DP  RH WIND       PRES   REMARKS
MEMPHIS INTL   CLOUDY    75  71  87 SW6       29.97R
NWS MEMPHIS      N/A     73 N/A N/A MISG        N/A
JACKSON        CLOUDY    82  77  84 NW7       29.93R HX  90
DYERSBURG      CLOUDY   N/A N/A N/A MISG        N/A
UNION CITY     MOSUNNY   81  77  89 SW8       29.90S
PARIS          SUNNY     81  75  83 SW5       29.93R
LEXINGTON      PTSUNNY   75  72  88 SW5       29.94R
$$

TNZ008-025-027-028-033-062-065-066-300100-
NORTH MIDDLE TENNESSEE

CITY           SKY/WX    TMP DP  RH WIND       PRES   REMARKS
NASHVILLE      PTCLDY    85  72  65 W3        29.93S HX  91
CLARKSVILLE    HVY RAIN  74  71  91 VRB7      29.93S VSB 1/2
SMYRNA         CLEAR     87  73  62 W6        29.93F HX  94
COOKEVILLE     MOCLDY    81  73  78 CALM      29.95S
CROSSVILLE     CLEAR     77  69  76 CALM      30.02R
$$

TNZ061-075-076-078-094-096-097-300100-
SOUTH MIDDLE TENNESSEE

CITY           SKY/WX    TMP DP  RH WIND       PRES   REMARKS
FAYETTEVILLE   CLEAR     82  72  69 SW6       29.96S
TULLAHOMA      CLEAR     82  72  69 SW6       29.98S
WINCHESTER     CLEAR     84  72  65 W3        29.96S
MCMINNVILLE    CLEAR     84  75  74 CALM      29.96S HX  92
COLUMBIA       PTCLDY    84  81  89 CALM      29.92S HX  98
SHELBYVILLE    PTCLDY    84  75  74 S7        29.95S HX  92
$$

TNZ017-018-042-046-047-300100-
NORTHEAST TENNESSEE

CITY           SKY/WX    TMP DP  RH WIND       PRES   REMARKS
TRI CITIES     CLOUDY    72  68  87 CALM      30.00R
ELIZABETHTON   LGT RAIN  73  68  83 VRB6G13   30.01R
$$

TNZ012-013-036-069-073-074-300100-
CENTRAL EAST TENNESSEE

CITY           SKY/WX    TMP DP  RH WIND       PRES   REMARKS
KNOXVILLE      TSTM      75  72  90 NW14G21   29.99R FOG
OAK RIDGE      CLOUDY    81  70  69 VRB5      29.99R
GATLINBURG     CLEAR     75  70  83 CALM      29.98R
MORRISTOWN     CLEAR     75  72  88 CALM      29.99R
$$

TNZ083-085-099-300100-
SOUTHEAST TENNESSEE

CITY           SKY/WX    TMP DP  RH WIND       PRES   REMARKS
CHATTANOOGA    CLOUDY    87  70  56 SW9       29.94S HX  92
$$

SKY/WX REPORTED AS FAIR MEANS FEW OR NO CLOUDS BELOW
12 THOUSAND FEET.





USA.gov is the U.S. government's official web portal to all federal, state and local government web resources and services.